This demonstration page uses our WeatherBlox Daily Observations layout. Learn more.

Left ArrowRight Arrow

34.16533, -84.80231

Hourly Observations for February 12, 2022

Temp ( °F °C ) Dew Point ( °F °C ) Humidity (%) Winds ( mph kmh ) Pressure ( in mb ) Visibility ( mi km ) Precip ( " mm )
12:15 am 00:15 Clear 45 7 34 1 66 66 Calm 30.07 1018 10 16 0.00 0.00
12:35 am 00:35 Clear 43 6 36 2 76 76 ESE 3 6 30.08 1019 10 16 0.00 0.00
12:55 am 00:55 Clear 43 6 34 1 71 71 Calm 30.08 1019 10 16 0.00 0.00
1:15 am 01:15 Clear 43 6 34 1 71 71 Calm 30.09 1019 10 16 0.00 0.00
1:35 am 01:35 Clear 41 5 34 1 76 76 Calm 30.09 1019 10 16 0.00 0.00
1:55 am 01:55 Clear 39 4 36 2 87 87 Calm 30.10 1019 10 16 0.00 0.00
2:15 am 02:15 Clear 39 4 36 2 87 87 Calm 30.10 1019 10 16 0.00 0.00
2:35 am 02:35 Mostly Clear 39 4 34 1 81 81 Calm 30.10 1019 10 16 0.00 0.00
2:55 am 02:55 Mostly Clear 39 4 34 1 81 81 Calm 30.10 1019 10 16 0.00 0.00
3:15 am 03:15 Mostly Clear 39 4 34 1 81 81 Calm 30.10 1019 10 16 0.00 0.00
3:35 am 03:35 Partly Cloudy 37 3 34 1 87 87 ESE 3 6 30.11 1020 10 16 0.00 0.00
3:55 am 03:55 Mostly Cloudy 37 3 34 1 87 87 Calm 30.11 1020 10 16 0.00 0.00
4:15 am 04:15 Mostly Clear 37 3 34 1 87 87 ESE 3 6 30.11 1020 10 16 0.00 0.00
4:35 am 04:35 Mostly Clear 37 3 34 1 87 87 Calm 30.11 1020 10 16 0.00 0.00
4:55 am 04:55 Clear 37 3 34 1 87 87 E 3 6 30.11 1020 10 16 0.00 0.00
5:15 am 05:15 Clear 37 3 34 1 87 87 ESE 3 6 30.11 1020 10 16 0.00 0.00
5:35 am 05:35 Mostly Clear 37 3 34 1 87 87 Calm 30.12 1020 10 16 0.00 0.00
5:55 am 05:55 Mostly Clear 37 3 34 1 87 87 Calm 30.13 1020 10 16 0.00 0.00
6:15 am 06:15 Mostly Clear 36 2 34 1 93 93 Calm 30.14 1021 10 16 0.00 0.00
6:35 am 06:35 Mostly Clear 36 2 34 1 93 93 Calm 30.15 1021 10 16 0.00 0.00
6:55 am 06:55 Clear 34 1 34 1 100 100 ENE 5 7 30.16 1021 10 16 0.00 0.00
7:15 am 07:15 Clear 34 1 34 1 100 100 Calm 30.17 1022 9 14 0.00 0.00
7:35 am 07:35 Sunny 36 2 34 1 93 93 E 3 6 30.16 1021 9 14 0.00 0.00
7:55 am 07:55 Sunny 36 2 34 1 93 93 Calm 30.16 1021 9 14 0.00 0.00
8:15 am 08:15 Sunny 37 3 34 1 87 87 Calm 30.17 1022 8 13 0.00 0.00
8:35 am 08:35 Sunny 39 4 36 2 87 87 Calm 30.17 1022 9 14 0.00 0.00
8:55 am 08:55 Sunny 41 5 37 3 87 87 E 3 6 30.17 1022 9 14 0.00 0.00
9:15 am 09:15 Sunny 43 6 39 4 87 87 Calm 30.17 1022 9 14 0.00 0.00
9:35 am 09:35 Sunny 46 8 41 5 82 82 Calm 30.18 1022 8 13 0.00 0.00
9:55 am 09:55 Sunny 50 10 45 7 82 82 W 3 6 30.16 1021 8 13 0.00 0.00
10:15 am 10:15 Sunny 52 11 46 8 82 82 W 6 9 30.17 1022 9 14 0.00 0.00
10:35 am 10:35 Sunny 54 12 46 8 77 77 W 10 17 30.16 1021 9 14 0.00 0.00
10:55 am 10:55 Sunny 55 13 45 7 67 67 W 12 19 30.16 1021 9 14 0.00 0.00
11:15 am 11:15 Sunny 57 14 43 6 59 59 VRB 5 7 30.15 1021 10 16 0.00 0.00
11:35 am 11:35 Sunny 57 14 45 7 63 63 VRB 6 9 30.15 1021 10 16 0.00 0.00
11:55 am 11:55 Sunny 59 15 45 7 59 59 Calm 30.14 1021 10 16 0.00 0.00
12:15 pm 12:15 Sunny 59 15 43 6 55 55 Calm 30.13 1020 10 16 0.00 0.00
12:35 pm 12:35 Sunny 61 16 41 5 48 48 VRB 5 7 30.11 1020 10 16 0.00 0.00
12:55 pm 12:55 Sunny 63 17 41 5 45 45 Calm 30.10 1019 10 16 0.00 0.00
1:15 pm 13:15 Sunny 63 17 41 5 45 45 Calm 30.09 1019 10 16 0.00 0.00
1:35 pm 13:35 Sunny 63 17 41 5 45 45 VRB 3 6 30.07 1018 10 16 0.00 0.00
1:55 pm 13:55 Sunny 64 18 41 5 43 43 W 5 7 30.06 1018 10 16 0.00 0.00
2:15 pm 14:15 Sunny 64 18 39 4 40 40 VRB 5 7 30.05 1018 10 16 0.00 0.00
2:35 pm 14:35 Sunny 64 18 39 4 40 40 W 7 11 30.04 1017 10 16 0.00 0.00
2:55 pm 14:55 Sunny 64 18 39 4 40 40 W 6 9 30.04 1017 10 16 0.00 0.00
3:15 pm 15:15 Sunny 66 19 39 4 37 37 VRB 7 11 30.03 1017 10 16 0.00 0.00
3:35 pm 15:35 Sunny 66 19 39 4 37 37 VRB 6 9 30.03 1017 10 16 0.00 0.00
3:55 pm 15:55 Sunny 66 19 39 4 37 37 W 9 15 30.03 1017 10 16 0.00 0.00
4:15 pm 16:15 Mostly Sunny 66 19 39 4 37 37 W 8 13 30.04 1017 10 16 0.00 0.00
4:35 pm 16:35 Mostly Sunny 64 18 39 4 40 40 VRB 7 11 30.05 1018 10 16 0.00 0.00
4:55 pm 16:55 Sunny 64 18 37 3 37 37 VRB 7 11 30.05 1018 8 13 0.00 0.00
5:15 pm 17:15 Mostly Sunny 63 17 39 4 42 42 VRB 6 9 30.06 1018 8 13 0.00 0.00
5:35 pm 17:35 Sunny 61 16 37 3 42 42 N 9 15 30.06 1018 7 11 0.00 0.00
5:55 pm 17:55 Mostly Sunny 61 16 37 3 42 42 VRB 5 7 30.07 1018 7 11 0.00 0.00
6:15 pm 18:15 Mostly Cloudy 59 15 37 3 45 45 Calm 30.09 1019 8 13 0.00 0.00
6:35 pm 18:35 Mostly Cloudy 57 14 37 3 48 48 VRB 3 6 30.09 1019 9 14 0.00 0.00
6:55 pm 18:55 Mostly Cloudy 57 14 37 3 48 48 Calm 30.10 1019 9 14 0.00 0.00
7:15 pm 19:15 Cloudy 55 13 37 3 51 51 Calm 30.10 1019 10 16 0.00 0.00
7:35 pm 19:35 Cloudy 54 12 37 3 54 54 VRB 8 13 30.11 1020 10 16 0.00 0.00
7:55 pm 19:55 Cloudy 52 11 36 2 54 54 VRB 6 9 30.12 1020 10 16 0.00 0.00
8:15 pm 20:15 Cloudy 50 10 36 2 58 58 VRB 3 6 30.13 1020 10 16 0.00 0.00
8:35 pm 20:35 Cloudy 50 10 34 1 54 54 VRB 5 7 30.13 1020 10 16 0.00 0.00
8:55 pm 20:55 Cloudy 48 9 34 1 58 58 VRB 6 9 30.15 1021 10 16 0.00 0.00
9:15 pm 21:15 Cloudy 48 9 32 0 54 54 VRB 3 6 30.16 1021 10 16 0.00 0.00
9:35 pm 21:35 Cloudy 46 8 30 -1 53 53 VRB 6 9 30.17 1022 10 16 0.00 0.00
9:55 pm 21:55 Mostly Cloudy 46 8 30 -1 53 53 WNW 9 15 30.17 1022 10 16 0.00 0.00
10:15 pm 22:15 Cloudy 46 8 30 -1 53 53 Calm 30.17 1022 10 16 0.00 0.00
10:35 pm 22:35 Cloudy 45 7 28 -2 53 53 VRB 7 11 30.18 1022 10 16 0.00 0.00
10:55 pm 22:55 Cloudy 45 7 25 -4 46 46 VRB 5 7 30.18 1022 10 16 0.00 0.00
11:15 pm 23:15 Cloudy 45 7 23 -5 42 42 VRB 3 6 30.18 1022 10 16 0.00 0.00
11:35 pm 23:35 Cloudy 43 6 25 -4 49 49 W 8 13 30.17 1022 10 16 0.00 0.00
11:55 pm 23:55 Cloudy 43 6 27 -3 53 53 W 5 7 30.17 1022 10 16 0.00 0.00

Powered by AerisWeather